Bettina K — PBEW — position and weather

sailwx.info

Track history (hours):
 
Tides and Currents Weather Stations Pressure Air Temp Water Temp Dewpoint Dewpoint Depression Visibility Wind Speed Wind Dir Waves Ship Positions

Bettina K

Last reported at 2014-Sep-11 10:32 UTC. Time now 2014-Oct-23 04:40 UTC.
Position N 40°50' E 029°16'.
Warning: this ship's position is 41 days out of date.

Length 88 m; draft 3.3 m.

Type: Cargo ship. MMSI: 246193000.

Date/timePositionNaut miles runAvg speedWind from/ knotsBaromVisibWave heightAir tempDewpointWater temp
2014-Sep-11 10:32N 40°50' E 029°16'0 0.0
2014-Sep-11 09:32N 40°50' E 029°16'0 0.0
2014-Sep-11 08:32N 40°50' E 029°16'0 0.0
2014-Sep-11 07:14N 40°50' E 029°16'0 0.0
2014-Sep-11 06:26N 40°50' E 029°16'0 0.0
2014-Sep-11 05:20N 40°50' E 029°16'0 0.0
2014-Sep-11 04:26N 40°50' E 029°16'0 0.0
2014-Sep-11 03:32N 40°50' E 029°16'0 0.0
2014-Sep-11 02:32N 40°50' E 029°16'0 0.0
2014-Sep-11 01:32N 40°50' E 029°16'0 0.0
2014-Sep-11 00:32N 40°50' E 029°16'0 0.0
2014-Sep-10 23:32N 40°50' E 029°16'0 0.0
2014-Sep-10 22:26N 40°50' E 029°16'0 0.0
2014-Sep-10 21:32N 40°50' E 029°16'0 0.0
2014-Sep-10 20:32N 40°50' E 029°16'0 0.0
2014-Sep-10 19:31N 40°50' E 029°16'0 0.0
2014-Sep-10 18:22N 40°50' E 029°16'0 0.0
2014-Sep-10 17:28N 40°50' E 029°16'  
2014-Sep-02 17:16N 37°51' E 024°36'7 9.2
2014-Sep-02 16:32N 37°44' E 024°33'9 9.2
2014-Sep-02 15:33N 37°36' E 024°28'12 9.4
2014-Sep-02 14:20N 37°27' E 024°19'7 8.9
2014-Sep-02 13:33N 37°22' E 024°13'27 9.0
2014-Sep-02 10:33N 36°60' E 023°54'10 9.2
2014-Sep-02 09:28N 36°51' E 023°47'51 8.7
2014-Sep-02 03:33N 36°24' E 022°53'  
Track history (hours):
 
Tides and Currents Weather Stations Pressure Air Temp Water Temp Dewpoint Dewpoint Depression Visibility Wind Speed Wind Dir Waves Ship Positions

Bettina K

Last reported at 2014-Sep-11 10:32 UTC. Time now 2014-Oct-23 04:40 UTC.
Position N 40°50' E 029°16'.
Warning: this ship's position is 41 days out of date.

Length 88 m; draft 3.3 m.

Type: Cargo ship. MMSI: 246193000.

Date/timePositionNaut miles runAvg speedWind from/ knotsBaromVisibWave heightAir tempDewpointWater temp
2014-Sep-11 10:32N 40°50' E 029°16'0 0.0
2014-Sep-11 09:32N 40°50' E 029°16'0 0.0
2014-Sep-11 08:32N 40°50' E 029°16'0 0.0
2014-Sep-11 07:14N 40°50' E 029°16'0 0.0
2014-Sep-11 06:26N 40°50' E 029°16'0 0.0
2014-Sep-11 05:20N 40°50' E 029°16'0 0.0
2014-Sep-11 04:26N 40°50' E 029°16'0 0.0
2014-Sep-11 03:32N 40°50' E 029°16'0 0.0
2014-Sep-11 02:32N 40°50' E 029°16'0 0.0
2014-Sep-11 01:32N 40°50' E 029°16'0 0.0
2014-Sep-11 00:32N 40°50' E 029°16'0 0.0
2014-Sep-10 23:32N 40°50' E 029°16'0 0.0
2014-Sep-10 22:26N 40°50' E 029°16'0 0.0
2014-Sep-10 21:32N 40°50' E 029°16'0 0.0
2014-Sep-10 20:32N 40°50' E 029°16'0 0.0
2014-Sep-10 19:31N 40°50' E 029°16'0 0.0
2014-Sep-10 18:22N 40°50' E 029°16'0 0.0
2014-Sep-10 17:28N 40°50' E 029°16'  
2014-Sep-02 17:16N 37°51' E 024°36'7 9.2
2014-Sep-02 16:32N 37°44' E 024°33'9 9.2
2014-Sep-02 15:33N 37°36' E 024°28'12 9.4
2014-Sep-02 14:20N 37°27' E 024°19'7 8.9
2014-Sep-02 13:33N 37°22' E 024°13'27 9.0
2014-Sep-02 10:33N 36°60' E 023°54'10 9.2
2014-Sep-02 09:28N 36°51' E 023°47'51 8.7
2014-Sep-02 03:33N 36°24' E 022°53'  

Dump ship's entire track history